Location: Apeadero de Los Molinos-Guadarrama
(40.7091°N, 4.0689°W)
Time: 09:01:40
(UTC+00:00)

X-37B - Pass Details

Date: 05 October 2021
Orbit: 342 x 346 km, 45.0° (Epoch: 22 October)

Event Time Altitude Azimuth Distance (km) Brightness Sun altitude
Exits shadow 05:08:48 21° 218° (SW) 839 1.9 -13.7°
Maximum altitude 05:08:53 21° 215° (SW) 838 1.9 -13.7°
Drops below altitude 10° 05:11:14 10° 162° (SSE) 1,312 3.4 -13.3°
Sets 05:13:26 0° 146° (SE) 2,122 4.7 -12.9°
